DW3263 Weather Reports


Display with metric or nautical units.
time (UTC)temp
F
wind
direction
speed
MPH
gust
MPH
rain 1hr
in
rain 24hr
in
rain mn
in
humidity
%
barometer
mb
20260507200518 64 293 3.0 7.0 0.00 0.05 0.03 38 1006.6
20260507195519 63 293 3.0 5.0 0.00 0.05 0.03 38 1006.8
20260507194519 64 270 5.0 9.0 0.00 0.05 0.03 37 1006.7
20260507193518 64 315 4.0 10.0 0.00 0.05 0.03 36 1006.9
20260507192519 64 315 3.0 6.0 0.00 0.05 0.03 38 1007.1
20260507191519 64 315 3.0 7.0 0.00 0.05 0.03 38 1007.3
20260507190519 63 315 4.0 11.0 0.00 0.05 0.03 39 1007.3
20260507185519 63 270 6.0 12.0 0.00 0.05 0.03 39 1007.4
20260507184519 63 315 5.0 12.0 0.00 0.05 0.03 41 1007.4
20260507183732 63 23 2.0 8.0 0.00 0.05 0.03 45 1007.5
20260507182519 62 248 2.0 6.0 0.00 0.05 0.03 41 1007.6
20260507181519 62 315 4.0 12.0 0.01 0.05 0.03 39 1007.7
20260507180519 63 248 2.0 5.0 0.01 0.05 0.03 40 1007.9
20260507175519 62 315 3.0 8.0 0.01 0.05 0.03 41 1008.1
20260507174519 62 315 4.0 9.0 0.01 0.05 0.03 40 1008.2
20260507173519 62 315 4.0 9.0 0.01 0.06 0.03 42 1008.3
20260507172519 61 23 3.0 10.0 0.01 0.06 0.03 40 1008.4
20260507171519 61 315 3.0 7.0 0.00 0.05 0.02 40 1008.7
20260507170519 60 338 2.0 6.0 0.00 0.05 0.02 39 1008.8
20260507165519 60 338 6.0 13.0 0.00 0.05 0.02 39 1009.0
20260507164519 60 68 3.0 11.0 0.00 0.05 0.02 42 1009.0
20260507163519 59 293 5.0 10.0 0.00 0.05 0.02 44 1009.2
20260507162729 59 315 3.0 8.0 0.00 0.05 0.02 42 1009.3
20260507161519 59 315 4.0 10.0 0.00 0.05 0.02 43 1009.5
20260507160731 58 338 6.0 11.0 0.00 0.05 0.02 40 1009.6
20260507155519 59 45 4.0 10.0 0.00 0.05 0.02 40 1009.6
20260507154519 58 270 3.0 9.0 0.00 0.05 0.02 43 1009.6
20260507153941 58 315 4.0 14.0 0.00 0.06 0.02 45 1009.7
20260507152519 57 315 6.0 13.0 0.00 0.06 0.02 44 1010.0
20260507151519 57 315 7.0 16.0 0.00 0.06 0.02 43 1010.1
20260507150519 58 0 3.0 11.0 0.00 0.06 0.02 45 1010.3
20260507145519 57 315 4.0 10.0 0.00 0.06 0.02 46 1010.5
20260507144519 57 315 5.0 11.0 0.00 0.06 0.02 45 1010.5
20260507144155 56 45 2.0 8.0 0.00 0.06 0.02 46 1010.8
20260507142519 56 338 2.0 5.0 0.00 0.06 0.02 46 1010.9
20260507141519 55 338 2.0 7.0 0.00 0.07 0.02 49 1010.8
20260507140519 55 338 2.0 9.0 0.00 0.07 0.02 46 1011.0
20260507135519 55 315 3.0 9.0 0.00 0.07 0.02 47 1011.1
20260507134519 54 270 3.0 8.0 0.00 0.07 0.02 50 1011.2
20260507133519 54 315 3.0 8.0 0.00 0.07 0.02 50 1011.3
20260507132519 54 315 3.0 7.0 0.00 0.07 0.02 51 1011.2
20260507131519 54 338 3.0 8.0 0.01 0.07 0.02 51 1011.2
20260507130519 54 338 2.0 4.0 0.01 0.07 0.02 55 1011.2
20260507125519 53 338 1.0 3.0 0.01 0.08 0.02 55 1011.1
20260507125155 53 338 3.0 7.0 0.01 0.08 0.02 53 1011.1
20260507123519 52 293 2.0 5.0 0.01 0.08 0.02 54 1011.4
20260507122519 52 293 3.0 9.0 0.01 0.08 0.02 55 1011.4
20260507121519 52 293 1.0 3.0 0.00 0.07 0.01 55 1011.3
20260507120519 51 293 2.0 6.0 0.00 0.07 0.01 57 1011.3
20260507115519 51 270 3.0 7.0 0.00 0.07 0.01 56 1011.3
20260507114519 51 248 2.0 4.0 0.00 0.07 0.01 57 1011.3
20260507113519 50 248 3.0 7.0 0.00 0.07 0.01 57 1011.0
20260507112519 50 248 2.0 6.0 0.00 0.07 0.01 57 1010.9
20260507111519 50 248 1.0 3.0 0.00 0.07 0.01 59 1010.9
20260507110519 50 248 1.0 4.0 0.00 0.07 0.01 60 1010.7
20260507105519 49 248 1.0 4.0 0.00 0.07 0.01 60 1010.7
20260507104520 49 248 2.0 4.0 0.00 0.07 0.01 58 1010.5
20260507103519 49 248 2.0 5.0 0.00 0.07 0.01 60 1010.4
20260507102519 50 248 2.0 4.0 0.00 0.07 0.01 59 1010.4
20260507101520 49 315 2.0 4.0 0.00 0.07 0.01 59 1010.2
20260507100729 50 315 2.0 4.0 0.00 0.07 0.01 61 1010.1
20260507095519 50 315 2.0 4.0 0.00 0.07 0.01 60 1010.1
20260507094519 50 315 2.0 5.0 0.00 0.07 0.01 59 1010.0
20260507093519 50 315 1.0 3.0 0.00 0.07 0.01 62 1009.9
20260507092519 50 315 3.0 5.0 0.00 0.07 0.01 59 1009.8
20260507091519 50 315 4.0 7.0 0.00 0.07 0.01 60 1009.5
20260507090520 50 315 2.0 5.0 0.00 0.07 0.01 60 1009.5
20260507085519 50 315 2.0 4.0 0.00 0.07 0.01 60 1009.4
20260507084732 50 315 2.0 4.0 0.00 0.07 0.01 60 1009.5
20260507083733 51 315 2.0 5.0 0.00 0.07 0.01 59 1009.6
20260507082729 51 315 3.0 7.0 0.00 0.07 0.01 60 1009.5
20260507081519 51 315 2.0 6.0 0.00 0.07 0.01 59 1009.7
20260507080520 51 315 2.0 5.0 0.00 0.07 0.01 59 1009.6
20260507075520 51 315 1.0 5.0 0.00 0.07 0.01 59 1009.6
20260507074520 51 315 1.0 4.0 0.00 0.07 0.01 58 1009.5
20260507073728 52 315 4.0 11.0 0.01 0.07 0.01 57 1009.7
20260507072520 52 315 2.0 6.0 0.01 0.07 0.01 58 1009.7
20260507071519 52 315 2.0 6.0 0.01 0.07 0.01 58 1009.6
20260507070519 52 315 3.0 6.0 0.01 0.07 0.01 59 1009.8
20260507065519 52 315 2.0 5.0 0.01 0.07 0.01 60 1009.8
20260507064519 52 315 3.0 7.0 0.01 0.07 0.01 61 1009.7
20260507063520 52 315 4.0 8.0 0.00 0.06 0.00 62 1009.5
20260507062519 52 315 3.0 6.0 0.00 0.06 0.00 65 1009.5
20260507061731 52 315 4.0 7.0 0.00 0.06 0.00 59 1009.6
20260507060520 52 315 3.0 6.0 0.00 0.06 0.00 46 1009.6
20260507055519 52 315 4.0 9.0 0.00 0.06 0.00 43 1009.6
20260507054519 53 293 4.0 9.0 0.00 0.06 0.00 45 1009.6
20260507053520 53 315 5.0 9.0 0.00 0.06 0.00 44 1009.6
20260507052519 53 315 2.0 5.0 0.00 0.06 0.00 38 1009.6
20260507051520 54 315 3.0 8.0 0.00 0.06 0.00 45 1009.4
20260507050520 54 315 3.0 7.0 0.00 0.06 0.00 55 1009.6
20260507045520 55 338 4.0 11.0 0.00 0.06 0.00 59 1009.5
20260507044519 55 315 5.0 10.0 0.00 0.06 0.00 59 1009.3
20260507043730 55 315 4.0 7.0 0.00 0.06 0.00 57 1009.6
20260507042731 55 315 3.0 9.0 0.00 0.06 0.00 52 1009.7
20260507041520 55 315 3.0 7.0 0.00 0.06 0.00 46 1009.5
20260507040520 55 315 3.0 6.0 0.00 0.06 0.00 43 1009.6
20260507035729 55 315 4.0 7.0 0.00 0.06 0.06 42 1009.6
20260507034730 55 315 1.0 3.0 0.00 0.06 0.06 38 1009.6
20260507033731 55 315 2.0 6.0 0.00 0.06 0.06 39 1009.4
20260507032519 56 315 2.0 6.0 0.00 0.06 0.06 42 1009.3
20260507031519 56 315 2.0 5.0 0.00 0.06 0.06 44 1009.1
20260507030519 56 315 2.0 7.0 0.00 0.06 0.06 45 1008.9
20260507025943 56 315 3.0 6.0 0.00 0.06 0.06 46 1009.1
20260507024731 56 315 5.0 9.0 0.00 0.06 0.06 46 1008.8
20260507023519 56 315 3.0 9.0 0.00 0.06 0.06 36 1009.3
20260507022519 57 315 1.0 5.0 0.00 0.06 0.06 27 1009.3
20260507021519 57 315 1.0 4.0 0.00 0.06 0.06 29 1009.1
20260507020519 57 315 3.0 6.0 0.00 0.06 0.06 32 1008.8
20260507015519 57 315 2.0 6.0 0.00 0.06 0.06 29 1008.9
20260507014519 58 315 3.0 6.0 0.00 0.06 0.06 30 1009.2
20260507013519 58 315 4.0 11.0 0.01 0.06 0.06 34 1009.1
20260507012519 58 315 4.0 8.0 0.01 0.06 0.06 32 1009.2
20260507011519 58 315 5.0 12.0 0.01 0.06 0.06 32 1009.2
20260507010519 59 293 4.0 8.0 0.01 0.06 0.06 32 1009.0
20260507005519 59 293 1.0 3.0 0.01 0.06 0.06 31 1008.9
20260507004519 59 293 3.0 6.0 0.01 0.06 0.06 33 1008.7
20260507003733 60 293 3.0 6.0 0.00 0.05 0.05 33 1008.6
20260507002519 60 293 4.0 8.0 0.00 0.05 0.05 33 1008.6
20260507001519 60 293 4.0 9.0 0.00 0.05 0.05 31 1008.0
20260507000519 60 293 5.0 8.0 0.00 0.05 0.05 32 1007.9
20260506235519 61 315 4.0 9.0 0.00 0.05 0.05 32 1007.6
20260506234519 61 293 3.0 8.0 0.00 0.05 0.05 34 1007.3
20260506233519 62 293 4.0 7.0 0.00 0.05 0.05 35 1007.3
20260506232519 62 315 4.0 8.0 0.00 0.05 0.05 34 1007.0
20260506231519 62 315 4.0 10.0 0.00 0.05 0.05 34 1006.9
20260506230519 62 315 5.0 9.0 0.00 0.05 0.05 32 1006.9
20260506225519 63 293 3.0 8.0 0.00 0.05 0.05 8 1006.8
20260506224520 64 293 2.0 5.0 0.00 0.05 0.05 12 1006.9
20260506223519 64 293 3.0 5.0 0.00 0.05 0.05 9 1006.9
20260506222519 64 293 3.0 7.0 0.00 0.05 0.05 13 1006.5
20260506221519 65 315 4.0 8.0 0.00 0.05 0.05 12 1006.4
20260506220519 65 293 6.0 12.0 0.01 0.05 0.05 15 1006.3
20260506215519 66 293 6.0 12.0 0.01 0.05 0.05 15 1006.0
20260506214519 67 315 4.0 8.0 0.01 0.05 0.05 100 1005.8
20260506213519 66 315 5.0 16.0 0.01 0.05 0.05 100 1005.7
20260506212519 67 315 2.0 5.0 0.01 0.05 0.05 100 1005.5
20260506211731 67 225 1.0 3.0 0.01 0.05 0.05 100 1005.3
20260506210519 67 225 2.0 5.0 0.00 0.04 0.04 100 1005.0
20260506205519 67 225 2.0 5.0 0.00 0.04 0.04 100 1005.1
20260506204519 67 225 4.0 8.0 0.00 0.04 0.04 100 1005.2
20260506203519 67 203 4.0 9.0 0.00 0.04 0.04 100 1005.1
20260506202519 67 270 3.0 8.0 0.00 0.04 0.04 100 1004.9
20260506201519 67 203 4.0 7.0 0.00 0.04 0.04 100 1005.0